Regional Weather Roundup
Issued by NWS

Home | Current Version | Previous Version | Graphics & Text | Print | Product List | Glossary On
Versions: 1 2 3 4 5 6 7 8 9 10 11 12 13 14 15 16 17 18 19 20 21 22 23 24 25 26 27 28 29 30 31 32 33 34 35 36 37 38 39 40 41 42 43 44 45 46 47 48 49 50
871
ASUS45 KCYS 272210
RWRWY

WYOMING REGIONAL WEATHER ROUNDUP
NATIONAL WEATHER SERVICE CHEYENNE WY
400 PM MDT SAT MAY 27 2017

NOTE:  "FAIR" INDICATES FEW OR NO CLOUDS BELOW 12,000 FEET
WITH NO SIGNIFICANT WEATHER AND/OR OBSTRUCTIONS TO VISIBILITY.

WYZ001-272300-
YELLOWSTONE NATIONAL PARK

CITY           SKY/WX    TMP DP  RH WIND       PRES   REMARKS
LK YELLOWSTONE   N/A     46  34  62 CALM      30.33R
W YELLOWSTONE  NOT AVBL

$$
WYZ002>013-054>058-071-098>099-272300-
NORTHERN WYOMING

CITY           SKY/WX    TMP DP  RH WIND       PRES   REMARKS
JACKSON        PTSUNNY   57  28  33 SW9       30.27S
CODY           FAIR      63  29  27 CALM      30.19R
GREYBULL       PTSUNNY   69  28  21 NW9G16    30.12S
WORLAND        FAIR      69  27  20 NW9       30.13F
SHERIDAN       PTSUNNY   66  39  37 N18G33    30.10R
BUFFALO        FAIR      65  32  29 N9G28     30.13S
GILLETTE       FAIR      66  35  31 NW16G26   30.09S
HULETT         CLOUDY    64  32  29 NW14G21   30.07S
NEWCASTLE      FAIR      63  30  29 NW25G31   30.08R

$$
WYZ014>020-022>026-101>103-272300-
CENTRAL WYOMING

CITY           SKY/WX    TMP DP  RH WIND       PRES   REMARKS
BIG PINEY      PTSUNNY   56  25  30 N9G21     30.26S
PINEDALE       FAIR      54  23  30 NW9       30.27R
DUBOIS         MOCLDY    54  25  32 N14G20    30.25S
LANDER         FAIR      63  29  27 VRB6      30.19S
RIVERTON       FAIR      62  28  27 MISG      30.20S
CASPER         FAIR      58  37  45 NW21G30   30.18R
DOUGLAS        PTSUNNY   60  37  42 NW8       30.14S

$$
WYZ021-027>030-104>119-272300-
SOUTHERN WYOMING

CITY           SKY/WX    TMP DP  RH WIND       PRES   REMARKS
EVANSTON       CLOUDY    56  27  32 CALM      30.28S
KEMMERER         N/A     57  25  28 N12G17    30.27S
FORT BRIDGER   MOCLDY    59  25  27 SW3       30.29S
ROCK SPRINGS   FAIR      59  21  23 MISG      30.23F
DIXON            N/A     59  25  27 N16G23    30.24R
RAWLINS        CLOUDY    55  26  32 NW16      30.22S
SARATOGA       FAIR      54  30  40 N13G21    30.23S
LARAMIE        PTSUNNY   54  30  40 NW23G32   30.20R
CHEYENNE       FAIR      54  37  52 N20G32    30.17R
TORRINGTON     PTSUNNY   65  35  33 NW14G20   30.08F
PINE BLUFFS    FAIR      57  37  47 N15G23    30.15R

$$




USA.gov is the U.S. government's official web portal to all federal, state and local government web resources and services.